FW3835 Weather Reports


Display with metric or nautical units.
time (UTC)temp
F
wind
direction
speed
MPH
gust
MPH
rain 1hr
in
rain 24hr
in
rain mn
in
humidity
%
barometer
mb
20260905041527 63 98 2.0 7.0 0.00 0.01 0.01 80 1017.2
20260905040029 63 104 3.0 7.0 0.00 0.01 0.01 79 1017.1
20260905034521 63 102 4.0 9.0 0.00 0.01 0.01 78 1017.2
20260905033023 64 103 3.0 8.0 0.00 0.01 0.01 77 1017.1
20260905031533 64 130 3.0 7.0 0.00 0.01 0.01 76 1017.2
20260905030036 64 90 4.0 7.0 0.00 0.01 0.01 76 1017.3
20260905024539 65 92 2.0 7.0 0.00 0.02 0.01 75 1017.3
20260905023028 65 109 1.0 8.0 0.00 0.35 0.01 75 1017.1
20260905021528 66 107 2.0 7.0 0.00 0.48 0.01 74 1016.7
20260905020029 67 101 1.0 9.0 0.00 0.48 0.01 74 1016.6
20260905014529 67 128 3.0 7.0 0.00 0.48 0.01 74 1016.5
20260905013033 68 108 2.0 4.0 0.00 0.48 0.01 74 1016.3
20260905011516 69 107 0.0 6.0 0.00 0.48 0.01 73 1016.1
20260905010025 70 109 1.0 7.0 0.00 0.48 0.01 73 1015.8
20260905004531 70 90 2.0 7.0 0.00 0.48 0.01 72 1015.8
20260905003031 71 22 0.0 4.0 0.00 0.48 0.01 70 1015.9
20260905001536 72 21 1.0 3.0 0.00 0.48 0.01 67 1015.8
20260905000019 74 19 0.0 2.0 0.00 0.48 0.01 65 1015.7
20260904234538 75 19 0.0 3.0 0.00 0.48 0.01 64 1015.6
20260904233050 75 130 2.0 7.0 0.00 0.48 0.01 61 1015.7
20260904231531 76 91 0.0 4.0 0.00 0.48 0.01 62 1015.5
20260904230035 77 57 1.0 4.0 0.00 0.48 0.01 60 1015.7
20260904224537 77 51 1.0 3.0 0.00 0.48 0.01 58 1015.6
20260904223027 78 51 2.0 5.0 0.00 0.49 0.01 56 1015.6
20260904221534 77 39 1.0 5.0 0.00 0.52 0.01 58 1015.5
20260904220036 78 13 1.0 8.0 0.00 0.52 0.01 55 1015.5
20260904214540 78 13 1.0 5.0 0.00 0.55 0.01 56 1015.5
20260904213026 78 90 1.0 8.0 0.00 0.65 0.01 57 1015.6
20260904211528 78 40 2.0 8.0 0.00 0.67 0.01 57 1015.5
20260904210041 79 52 2.0 7.0 0.00 1.08 0.01 56 1015.5
20260904204532 78 63 3.0 6.0 0.00 1.79 0.01 57 1015.4
20260904203034 78 69 3.0 10.0 0.00 1.79 0.01 60 1015.6
20260904201526 78 30 2.0 11.0 0.00 1.79 0.01 58 1015.7
20260904200022 78 68 2.0 5.0 0.00 1.79 0.01 61 1015.6
20260904194512 77 85 4.0 8.0 0.00 1.79 0.01 59 1015.8
20260904193017 77 71 2.0 8.0 0.00 1.79 0.01 62 1015.8
20260904191525 77 101 2.0 6.0 0.00 1.79 0.01 62 1015.9
20260904190028 76 126 3.0 8.0 0.00 1.79 0.01 62 1016.0
20260904184518 75 42 3.0 8.0 0.00 1.79 0.01 63 1016.0
20260904183016 75 123 4.0 8.0 0.00 1.79 0.01 64 1016.0
20260904181523 75 126 1.0 8.0 0.00 1.79 0.01 67 1015.8
20260904180027 73 102 2.0 6.0 0.00 1.79 0.01 68 1015.9
20260904174537 72 149 2.0 7.0 0.00 1.79 0.01 71 1016.0
20260904173013 71 156 4.0 10.0 0.00 1.79 0.01 72 1015.8
20260904171519 70 54 4.0 8.0 0.00 1.79 0.01 73 1015.7
20260904170027 69 48 2.0 7.0 0.00 1.79 0.01 75 1015.7
20260904164530 67 110 1.0 8.0 0.00 1.79 0.01 76 1015.8
20260904163030 68 97 2.0 6.0 0.00 1.79 0.01 78 1015.8
20260904161515 67 142 2.0 5.0 0.00 1.79 0.01 77 1015.5
20260904160030 68 111 3.0 7.0 0.00 1.79 0.01 80 1015.2
20260904154527 66 117 2.0 4.0 0.00 1.79 0.01 82 1015.1
20260904153031 65 125 2.0 5.0 0.00 1.79 0.01 83 1015.0
20260904151535 63 128 1.0 3.0 0.00 1.79 0.01 83 1015.3
20260904150017 64 128 3.0 7.0 0.00 1.79 0.01 83 1015.0
20260904144528 63 126 1.0 3.0 0.00 1.79 0.01 83 1014.8
20260904143027 63 126 1.0 4.0 0.00 1.79 0.01 83 1014.6
20260904141530 62 136 1.0 4.0 0.00 1.79 0.01 83 1014.3
20260904140034 62 136 0.0 2.0 0.00 1.79 0.01 83 1014.4
20260904134503 62 136 0.0 2.0 0.00 1.79 0.01 83 1014.2
20260904133005 61 136 1.0 2.0 0.00 1.79 0.01 83 1014.2
20260904131506 61 136 1.0 3.0 0.00 1.79 0.01 83 1014.0
20260904130004 61 136 1.0 3.0 0.00 1.79 0.01 83 1013.7
20260904124504 61 136 1.0 3.0 0.00 1.79 0.01 83 1013.6
20260904123006 61 136 0.0 2.0 0.00 1.79 0.01 83 1013.8
20260904121504 61 136 0.0 3.0 0.00 1.79 0.01 83 1013.5
20260904120008 61 136 0.0 1.0 0.00 1.79 0.01 83 1013.4
20260904114505 61 136 0.0 2.0 0.00 1.79 0.01 83 1013.4
20260904113008 61 136 0.0 2.0 0.00 1.79 0.01 83 1013.3
20260904111508 61 136 1.0 3.0 0.00 1.79 0.01 83 1013.1
20260904110020 61 136 0.0 4.0 0.00 1.79 0.01 83 1013.1
20260904104506 61 140 0.0 4.0 0.00 1.79 0.01 83 1013.0
20260904103010 61 142 2.0 4.0 0.00 1.79 0.01 83 1012.8
20260904101518 60 142 1.0 3.0 0.00 1.79 0.01 83 1012.7
20260904100012 60 142 0.0 2.0 0.00 1.79 0.01 83 1012.8
20260904094507 59 142 0.0 3.0 0.00 1.79 0.01 82 1012.5
20260904093014 59 144 0.0 3.0 0.00 1.79 0.01 82 1012.2
20260904091511 59 144 0.0 2.0 0.00 1.79 0.01 82 1012.1
20260904090014 60 144 0.0 1.0 0.00 1.79 0.01 82 1012.1
20260904084514 60 144 0.0 1.0 0.00 1.79 0.01 82 1011.7
20260904083008 61 144 0.0 1.0 0.00 1.79 0.01 82 1011.7
20260904081516 61 144 0.0 4.0 0.00 1.79 0.01 82 1011.7
20260904080014 61 146 0.0 4.0 0.00 1.79 0.01 82 1011.4
20260904074519 62 139 0.0 4.0 0.00 1.79 0.01 82 1011.2
20260904073019 62 143 1.0 4.0 0.00 1.79 0.01 82 1011.2
20260904071528 62 142 2.0 7.0 0.00 1.79 0.01 82 1011.1
20260904070016 62 76 2.0 8.0 0.00 1.79 0.01 82 1011.3
20260904064515 62 94 3.0 8.0 0.00 1.79 0.01 82 1011.2
20260904063027 62 144 2.0 6.0 0.01 1.79 0.01 82 1011.3
20260904061514 62 106 1.0 7.0 0.01 1.79 0.01 82 1011.2
20260904060015 62 120 4.0 9.0 0.01 1.79 0.01 82 1011.2
20260904054516 62 131 4.0 10.0 0.01 1.79 0.01 82 1011.2
20260904053020 62 92 3.0 6.0 0.00 1.78 0.00 82 1011.1
20260904051519 62 92 3.0 9.0 0.00 1.78 0.00 82 1011.0
20260904050016 62 101 4.0 9.0 0.00 1.78 0.00 82 1010.9
20260904044530 62 131 3.0 8.0 0.00 1.78 1.78 82 1010.9
20260904043024 62 108 2.0 6.0 0.00 1.78 1.78 82 1011.0